Regional Weather Roundup
Issued by NWS

Home | Current Version | Previous Version | Graphics & Text | Print | Product List | Glossary On
Versions: 1 2 3 4 5 6 7 8 9 10 11 12 13 14 15 16 17 18 19 20 21 22 23 24 25 26 27 28 29 30 31 32 33 34 35 36 37 38 39 40 41 42 43 44 45 46 47 48
000
ASUS43 KDMX 230707
RWRIA

WEATHER ROUNDUP FOR IOWA
NATIONAL WEATHER SERVICE DES MOINES IA
200 AM CDT TUE SEP 23 2014

NOTE: "FAIR" INDICATES FEW OR NO CLOUDS BELOW 12,000 FEET WITH NO
SIGNIFICANT WEATHER AND/OR OBSTRUCTIONS TO VISIBILITY.

* - THESE STATIONS ARE NOT NWS STATIONS...THUS NOT UNDER NWS
QUALITY CONTROL.  THEY ALSO DO NOT REPORT WEATHER SUCH
AS PRECIPITATION OR FOG.

IAZ001>003-012>014-020>022-031>034-043>046-230800-
   NORTHWEST IOWA

CITY           SKY/WX    TMP DP  RH WIND       PRES   REMARKS
CARROLL *      CLEAR     50  48  93 S7        30.20S
CHEROKEE *     CLEAR     52  50  93 S3        30.18R
DENISON *      CLEAR     57  52  82 S8        30.17S
LE MARS *        N/A     55  52  88 CALM      30.16S
ORANGE CITY *  CLEAR     55  46  71 S6        30.16S
SHELDON *      CLEAR     52  50  93 S5        30.15S
SIOUX CITY     CLOUDY    57  53  86 SE7       30.15F
SPENCER        CLEAR     50  47  89 SE7       30.18S
STORM LAKE *   CLEAR     52  50  93 S8        30.18F
$$

IAZ055>058-069>071-079>083-090>094-230800-
   SOUTHWEST IOWA

CITY           SKY/WX    TMP DP  RH WIND       PRES   REMARKS
ATLANTIC *     CLEAR     54  50  87 CALM      30.20S FOG
AUDUBON *      CLEAR     46  43  87 CALM      30.21F
CLARINDA *     CLEAR     52  52 100 CALM      30.23S
COUNCIL BLFS * CLEAR     59  54  82 S8        30.18S
CRESTON *      CLEAR     54  50  87 S7        30.23S
HARLAN  *      CLEAR     52  52 100 CALM      30.23S
LAMONI         MOCLDY    55  50  83 S7        30.23S
RED OAK *      MOCLDY    54  52  94 CALM      30.21R
SHENANDOAH *   CLEAR     59  54  82 S5        30.21R
$$

IAZ047>049-059>061-072>074-084-230800-
   CENTRAL IOWA

CITY           SKY/WX    TMP DP  RH WIND       PRES   REMARKS
AMES           PTCLDY    50  49  96 SE3       30.23R
ANKENY *       CLEAR     50  50 100 CALM      30.23R
CHARITON *     CLEAR     52  48  87 S5        30.24R FOG
DES MOINES     PTCLDY    56  50  80 S6        30.23R
GRINNELL*      PTCLDY    50  46  87 SE5       30.25R
KNOXVILLE *    CLEAR     54  50  87 S6        30.22S
MARSHALLTOWN   PTCLDY    50  47  89 S3        30.23R
PELLA *        MOCLDY    52  50  93 CALM      30.25S
PERRY *          N/A     50  48  93 S6        30.22R
$$

IAZ004>006-015-016-023>025-035-036-230800-
   NORTH CENTRAL IOWA

CITY           SKY/WX    TMP DP  RH WIND       PRES   REMARKS
ALGONA *       CLEAR     52  48  87 S8        30.21R
CLARION *        N/A     52  50  93 S6        30.22R
ESTHERVILLE    CLEAR     46  44  93 S5        30.18S
FORT DODGE *   PTCLDY    54  48  82 CALM      30.22R
MASON CITY     CLEAR     48  46  93 S7        30.23S
FOREST CITY *    N/A     46  46 100 CALM      30.22R FOG
IOWA FALLS *     N/A     50  46  87 SE3       30.24R
$$

IAZ007>011-017>019-026>030-037>042-050>054-066-230800-
   NORTHEAST IOWA

CITY           SKY/WX    TMP DP  RH WIND       PRES   REMARKS
CEDAR RAPIDS   CLEAR     47  47 100 S5        30.25R
CHARLES CITY * CLEAR     52  48  87 S7        30.24R
CLINTON *      CLEAR     45  41  87 CALM      30.29S
DECORAH *      CLEAR     52  48  87 S3        30.23S
DUBUQUE        CLEAR     48  45  89 S3        30.26S
MONTICELLO *   CLEAR     43  43 100 CALM      30.26R
OELWEIN *      CLEAR     48  46  93 S5        30.25R
WATERLOO       CLEAR     47  44  90 SE3       30.23R
$$

IAZ064-065-067-068-078-230800-
   EAST CENTRAL IOWA

CITY           SKY/WX    TMP DP  RH WIND       PRES   REMARKS
DAVENPORT      CLEAR     50  45  83 SE3       30.27R
IOWA CITY      FOG       46  46 100 CALM      30.26S VSB 3/4
MT. PLEASANT * CLEAR     48  46  93 CALM      30.26S
MUSCATINE *    CLEAR     46  45  93 CALM      30.27R
QUAD CITIES    CLEAR     46  44  93 CALM      30.27R
$$

IAZ062-063-075>077-085>089-095>099-230800-
   SOUTHEAST IOWA

CITY           SKY/WX    TMP DP  RH WIND       PRES   REMARKS
BURLINGTON     CLEAR     48  47  96 CALM      30.26R
FAIRFIELD *    CLEAR     50  46  87 SE3       30.26R
FORT MADISON * CLEAR     52  46  82 CALM      30.27R
KEOKUK *       CLEAR     52  50  93 SE3       30.26R
OSKALOOSA *      N/A     50  48  93 S3        30.25S
CENTERVILLE *  CLEAR     48  48 100 SE3       30.26R
OTTUMWA        PTCLDY    51  48  89 S5        30.25R
WASHINGTON *   CLEAR     50  48  93 CALM      30.26R
$$

ABBREVIATIONS USED IN REMARKS
   TC - TEMPERATURES IN CELSIUS
  WCI - WIND CHILL INDEX
   HX - HEAT INDEX
  VSB - VISIBILITY
$$



USA.gov is the U.S. government's official web portal to all federal, state and local government web resources and services.